Wind_Speed
6 6 4 4 3 2 1 1 1 1 1 2 0 0 1 2 4 5 6 4 4 3 6 10 9 10 11 9 10 11 10 4 5 4 3 8 22 23 16 18 20 18 19 17 15 13 11 10 10 11 10 10 11 12 12 11 11 10 10 10 10 11 12 13 14 13 14 15 15 16 17 17 17 18 18 18 19 18 18 18 18 19 19 19 18 17 18 18 19 19 19 19 19 20 20 20 20
7 4 1 0 2 2 1 1 1 2 2 2 1 2 3 3 6 6 5 4 5 6 9 11 12 13 13 12 13 17 13 8 11 7 6 20 24 19 20 22 21 20 20 17 14 13 12 11 11 12 11 11 11 11 11 10 9 10 10 11 10 11 11 12 14 14 14 15 15 16 16 16 17 18 17 18 18 17 17 17 18 19 18 17 17 17 18 18 18 19 19 19 19 19 19 19 19
5 2 1 3 3 0 0 0 2 1 2 3 2 3 4 5 6 5 5 7 9 8 8 9 11 10 14 15 14 15 8 8 16 11 9 22 18 18 25 22 20 21 19 16 14 14 13 12 12 12 12 11 11 11 10 9 9 10 10 11 11 11 11 12 14 14 14 15 15 16 16 16 17 17 17 17 17 16 16 17 17 17 17 16 16 16 16 17 18 19 19 19 19 19 19 19 18
3 2 2 3 0 1 1 1 1 2 1 1 3 4 5 6 6 6 7 8 7 7 8 9 9 7 14 18 11 13 9 7 14 13 10 18 21 25 27 22 21 20 17 15 14 14 13 13 12 12 12 11 11 11 11 10 11 11 11 11 12 12 11 12 13 14 14 16 15 15 16 17 17 17 17 17 16 15 15 16 17 16 16 15 15 15 16 17 17 18 19 18 18 19 18 18 17
5 1 2 3 1 1 1 1 1 1 1 1 2 4 7 7 7 8 8 8 6 7 9 9 8 8 12 13 8 8 10 10 14 16 14 20 28 29 27 25 22 21 19 15 16 16 14 14 13 12 12 11 11 11 11 12 12 12 12 12 12 12 12 12 13 14 14 15 15 15 16 17 17 18 17 17 16 15 15 16 16 16 15 15 15 16 16 17 17 17 18 18 18 18 18 17 18
6 1 3 3 1 0 1 1 1 0 2 3 1 4 8 5 7 9 8 8 7 7 9 9 11 12 11 10 8 8 12 13 14 16 19 24 29 29 27 25 23 22 20 17 18 18 16 15 14 13 12 12 12 12 12 12 12 12 12 12 12 12 12 12 13 15 15 15 15 15 16 17 17 19 18 17 17 16 16 15 15 15 15 15 16 16 16 17 17 17 18 18 18 18 17 17 17
8 3 3 3 1 1 1 1 2 0 2 4 2 5 7 5 8 9 9 9 7 8 10 11 12 12 10 9 9 12 18 18 17 18 24 28 29 28 27 25 24 22 21 20 19 18 16 15 15 14 13 13 13 12 12 11 11 12 12 12 12 13 12 12 12 14 16 15 15 15 16 17 17 19 19 17 17 17 16 15 14 15 15 16 16 16 16 17 17 17 17 17 17 18 17 16 16
6 2 0 1 1 1 1 1 2 0 1 2 3 5 7 7 8 7 8 9 8 8 12 14 12 12 11 10 8 13 23 25 24 26 29 30 29 28 27 26 24 23 22 21 19 18 16 15 16 15 15 14 13 13 12 12 12 12 12 12 13 13 13 13 13 14 16 16 16 16 16 17 17 18 20 18 18 17 16 16 15 15 15 16 17 17 16 16 16 16 16 16 17 16 16 16 16
3 2 1 1 1 1 1 1 2 1 1 2 2 5 6 6 6 6 7 8 9 8 13 15 11 13 14 13 11 12 21 29 32 31 30 30 29 28 26 25 25 24 23 21 20 18 17 15 16 16 15 14 14 13 13 13 13 13 13 13 14 13 13 14 14 15 17 17 17 16 16 18 18 18 18 18 18 16 16 16 16 16 15 16 16 16 16 15 15 15 15 16 16 16 16 15 15
3 3 1 1 1 2 1 1 1 1 3 3 4 6 4 4 3 4 5 8 11 10 16 15 13 16 16 13 10 11 20 29 31 28 27 28 29 27 24 24 24 24 23 21 20 19 18 16 16 16 15 14 14 13 13 13 13 13 13 14 15 14 14 14 14 15 17 18 17 17 17 19 19 18 17 17 17 16 16 17 16 15 15 16 16 15 15 14 14 14 15 15 16 16 16 15 15
2 2 1 1 2 2 1 1 0 1 4 3 5 5 4 4 3 4 5 10 13 15 17 14 13 16 15 11 7 14 25 27 27 27 27 28 29 27 25 24 23 22 21 19 18 19 19 17 16 15 15 14 13 12 12 13 14 14 14 14 14 15 14 14 14 14 17 18 18 17 18 18 18 18 18 18 18 16 16 16 16 15 15 15 15 15 15 14 14 15 14 14 15 15 15 15 15
2 1 2 1 2 0 1 2 2 2 4 2 5 3 5 4 3 4 7 13 15 15 14 10 12 13 14 10 6 16 25 23 25 26 24 28 31 28 26 24 22 21 21 19 18 20 20 18 16 15 14 14 13 13 12 13 14 14 14 14 15 15 15 15 14 14 16 18 18 18 18 18 18 19 18 19 18 16 15 15 15 15 14 15 15 15 15 15 15 14 14 14 14 14 14 14 15
1 2 1 1 1 1 2 2 2 2 2 3 4 3 6 4 4 5 7 14 14 13 12 11 13 12 13 9 8 13 18 22 26 25 24 28 30 28 26 24 22 20 20 20 19 19 19 18 17 15 14 14 13 13 12 13 14 14 14 15 15 16 15 15 15 15 16 18 18 17 18 18 19 20 19 18 17 16 15 15 15 14 14 14 15 15 15 15 15 14 13 14 14 14 14 14 15
2 1 1 1 1 2 2 2 1 1 1 1 2 4 4 2 4 5 5 12 11 13 14 15 14 12 13 10 8 8 13 23 26 25 26 29 29 27 26 23 22 20 19 19 19 18 18 18 17 16 15 15 14 13 13 13 14 14 14 15 15 16 15 15 16 16 17 18 18 17 18 18 19 19 19 17 16 15 14 14 14 13 13 12 13 14 15 15 14 13 13 12 12 13 14 15 16
3 1 1 0 1 2 2 3 3 2 1 2 2 4 4 2 1 3 6 11 11 13 14 15 13 10 12 11 9 9 17 26 27 26 25 26 27 26 24 22 21 20 19 19 18 17 17 18 18 16 15 15 15 15 14 14 14 15 15 16 16 16 16 17 18 18 18 18 18 17 18 18 18 19 19 16 15 14 13 13 13 13 12 12 12 13 14 14 13 12 12 12 12 13 15 17 18
2 1 2 1 0 2 2 3 3 3 2 3 2 4 5 3 4 1 5 8 11 14 12 12 10 9 12 12 14 19 23 27 29 29 26 25 26 25 24 21 20 19 19 19 18 16 16 17 16 15 15 15 16 17 16 15 16 16 16 17 17 17 17 17 18 19 18 18 19 18 17 17 17 17 18 16 14 14 13 12 12 12 12 12 14 14 13 13 12 12 12 12 13 14 16 18 17
1 0 2 1 1 2 3 5 4 5 3 2 2 1 6 3 4 2 1 4 11 14 11 11 11 12 14 16 23 28 26 27 29 29 26 25 24 23 23 21 19 17 18 18 17 17 16 16 15 15 16 16 17 18 18 17 17 18 18 18 18 18 19 19 19 20 19 18 19 19 18 18 17 16 16 15 14 13 12 11 11 11 12 13 14 13 12 12 12 12 12 13 15 16 17 16 14
2 1 1 2 2 3 4 6 4 5 7 4 4 3 6 5 3 2 2 6 9 11 11 13 14 15 19 25 30 28 26 28 28 26 23 21 21 20 20 20 18 17 17 17 17 16 17 16 14 15 17 17 18 18 18 19 20 20 19 20 19 19 20 20 20 21 20 19 19 19 19 18 17 16 15 14 14 13 12 11 11 11 12 13 13 13 12 12 13 13 13 14 15 16 15 14 12
3 1 2 2 3 3 2 5 4 3 9 7 5 3 4 6 4 1 4 6 7 10 12 14 17 19 22 26 28 25 25 26 25 24 19 17 19 19 19 19 18 17 17 17 17 16 17 17 14 15 17 18 18 18 19 21 22 22 21 21 20 20 21 21 21 20 19 19 18 18 18 17 16 15 14 13 13 12 11 11 11 12 13 13 12 12 13 13 14 14 14 14 15 16 14 13 12
3 2 1 2 2 2 3 7 5 3 8 9 6 2 3 6 4 2 6 8 6 10 13 16 19 19 19 20 24 24 23 23 23 22 18 15 17 18 19 19 18 17 17 18 17 16 17 17 15 14 16 17 19 19 19 20 21 22 22 22 21 21 21 20 20 19 18 19 17 16 17 17 16 14 14 13 12 12 12 12 13 14 14 13 13 13 13 13 13 13 13 13 14 14 13 12 11
1 0 2 2 1 1 3 7 6 4 9 9 7 5 4 7 4 3 6 6 6 10 14 18 20 20 19 18 20 22 21 21 21 22 20 17 17 18 19 19 19 18 18 18 17 17 17 17 16 15 14 16 19 20 19 20 20 21 22 22 21 20 19 19 17 17 18 18 17 16 17 16 16 15 14 13 13 13 13 13 13 14 14 14 14 13 12 11 10 9 9 10 10 9 9 8 7
2 2 0 3 2 1 1 2 2 2 6 7 8 6 5 5 3 5 6 6 7 11 15 18 19 19 19 18 19 20 19 18 18 20 22 19 18 19 20 19 20 20 19 19 18 17 17 17 17 16 14 14 17 19 20 20 21 21 21 20 19 18 17 17 15 14 16 17 17 16 17 17 17 16 15 15 14 13 13 14 14 14 14 13 12 11 9 7 6 6 6 7 6 5 5 5 5
3 2 3 5 3 2 1 2 1 4 5 6 7 4 4 5 3 5 5 6 9 13 17 17 17 19 20 20 18 17 15 15 17 18 21 21 20 22 22 20 20 21 20 19 19 17 16 17 17 17 15 14 16 18 19 20 21 21 20 18 18 17 16 15 14 14 16 16 16 16 17 18 17 17 17 16 15 13 11 12 13 12 10 9 8 7 5 3 3 4 4 4 4 2 3 4 4
7 1 0 3 2 4 3 3 1 7 7 4 2 3 2 7 4 3 4 6 13 17 18 17 17 21 20 18 16 16 15 15 17 18 20 20 22 25 23 21 21 21 20 19 19 17 16 16 17 18 17 16 17 18 19 19 20 18 17 16 16 14 15 16 16 17 17 17 17 15 16 17 17 18 18 16 14 12 10 10 10 9 9 7 6 5 3 1 1 0 2 3 5 5 3 3 2
6 3 2 3 4 5 4 3 5 7 5 3 7 3 5 6 5 3 5 9 16 18 18 17 17 17 16 15 16 15 14 16 17 18 18 19 23 25 24 23 22 21 21 20 20 18 16 17 18 18 18 18 18 17 18 18 18 17 15 15 15 13 15 17 18 19 18 19 18 16 16 17 17 18 17 15 14 13 11 10 8 7 8 7 5 4 2 1 1 2 3 4 6 7 5 2 2
5 6 5 5 4 4 6 6 9 9 3 3 10 4 8 2 6 4 5 10 17 19 18 17 15 15 14 14 15 14 14 15 17 17 16 20 23 23 23 24 22 21 21 21 21 19 17 18 18 18 19 18 17 16 17 19 19 18 17 16 15 16 18 18 19 19 19 19 20 18 16 17 17 17 15 15 14 12 10 8 6 5 6 4 3 2 1 0 1 2 1 2 3 2 6 3 2
9 9 8 8 5 3 6 5 7 7 4 2 8 7 5 6 3 4 5 9 18 19 17 16 14 14 14 13 13 14 15 16 18 19 17 19 21 22 23 23 23 22 21 21 21 20 19 19 18 18 19 18 16 17 19 20 21 20 18 17 17 19 20 20 19 18 17 17 18 18 17 16 15 14 14 13 12 11 9 7 7 5 4 3 2 2 3 2 2 2 2 1 2 3 3 3 3
13 11 10 9 5 3 4 3 5 3 3 4 4 6 4 6 1 5 6 10 17 17 16 16 14 12 13 13 11 11 14 17 20 20 17 17 20 22 22 22 25 24 21 22 22 22 22 20 19 18 19 18 17 18 18 18 18 18 17 18 18 18 19 19 17 16 15 14 15 15 16 16 13 12 12 11 10 10 9 8 7 6 5 4 4 4 5 5 5 4 3 1 0 2 2 2 3
12 10 9 7 6 4 3 2 4 4 3 4 3 2 2 1 4 8 6 10 15 15 15 15 13 11 11 10 9 9 12 17 19 17 17 19 20 22 22 22 25 25 23 22 22 23 22 20 19 18 18 17 17 18 18 17 17 16 17 18 18 17 18 17 16 15 13 12 12 12 13 13 12 11 9 9 9 8 8 7 5 5 5 6 6 5 5 5 6 4 4 3 2 2 2 1 1
8 7 6 5 4 3 2 2 3 5 3 2 1 2 2 1 6 6 4 12 16 14 13 12 11 10 9 8 7 8 12 15 15 17 20 20 21 23 22 22 24 26 26 23 22 23 21 19 20 19 18 18 17 17 17 17 16 15 16 16 16 16 16 16 15 13 11 10 9 9 9 10 12 11 8 7 8 8 8 7 7 7 6 6 5 6 7 7 7 5 5 4 3 2 1 1 2
7 6 2 3 2 1 3 3 3 5 2 4 3 3 2 2 4 4 2 12 15 13 12 12 11 10 9 7 7 8 10 13 16 19 21 20 22 23 23 22 24 27 27 25 25 23 21 19 19 20 20 19 18 17 17 16 15 15 15 15 16 16 15 15 14 12 12 12 10 10 12 12 12 11 8 8 9 8 8 9 9 8 6 5 5 6 8 8 8 7 6 4 3 1 2 2 4
3 3 1 2 2 0 2 2 1 2 3 2 2 3 2 4 4 5 2 9 11 10 12 12 12 12 9 7 8 8 8 12 18 20 20 21 22 23 24 24 24 25 25 26 27 25 22 20 19 20 21 21 20 19 18 16 15 14 14 15 16 17 16 15 13 13 14 14 13 13 14 14 12 9 8 9 10 8 8 9 8 7 6 5 5 6 6 6 6 6 5 4 4 2 3 3 4
1 1 3 3 3 3 1 1 3 3 2 2 4 3 2 3 5 5 2 6 9 8 11 12 12 13 10 7 8 9 8 9 16 18 20 22 22 23 25 25 24 23 23 26 27 26 24 22 21 21 21 20 20 20 20 19 16 14 14 14 15 17 16 15 14 12 13 13 14 13 13 13 11 9 8 9 10 9 8 8 7 6 6 5 5 5 6 5 4 4 4 4 4 4 3 1 2
2 1 3 4 6 6 3 2 3 3 3 2 3 3 2 2 4 4 3 4 6 6 10 11 11 11 8 7 9 9 8 7 11 15 19 23 23 25 26 24 24 22 23 26 25 25 25 24 22 21 21 19 18 19 20 20 18 15 15 14 14 16 15 15 15 13 12 12 12 12 12 12 11 9 8 8 9 8 8 7 7 6 5 5 5 6 6 5 5 3 3 4 4 4 2 1 2
5 4 4 4 6 7 5 3 2 5 5 2 3 2 1 3 5 4 3 3 3 4 9 10 10 12 9 8 10 9 8 8 11 16 21 25 25 26 25 24 24 23 23 25 24 24 25 24 23 22 21 20 18 17 19 20 18 16 16 14 15 16 15 16 15 14 13 11 9 10 11 12 12 10 8 7 8 9 8 6 5 6 5 4 3 4 6 5 5 4 3 4 4 4 2 2 3
8 7 6 7 7 5 6 4 2 6 4 2 4 2 1 3 4 4 4 3 1 4 5 9 9 11 9 8 10 9 7 9 13 18 23 25 25 25 25 24 25 24 23 24 24 24 24 25 25 23 21 21 19 18 19 20 18 16 15 14 16 14 12 16 15 13 13 10 8 10 10 11 12 10 8 6 8 9 8 6 5 5 5 5 4 4 5 5 5 5 4 4 4 3 3 2 4
9 6 5 8 7 5 7 7 6 7 4 2 3 2 2 3 4 5 4 4 3 5 4 7 8 10 9 8 11 9 7 11 15 19 22 25 25 25 26 24 24 24 24 25 25 24 25 26 26 24 22 22 21 19 21 21 17 17 16 14 16 13 11 15 15 13 13 10 9 10 9 10 11 10 7 7 8 9 8 7 5 5 6 6 5 5 6 5 4 3 3 4 5 4 4 4 6
10 7 5 7 5 5 8 8 7 6 4 3 3 3 1 2 3 1 1 3 4 4 2 4 7 10 8 8 12 9 6 10 14 16 20 25 26 26 25 23 23 25 25 25 24 24 26 27 26 24 23 23 22 20 22 19 15 17 17 15 17 15 12 14 15 13 12 11 10 11 9 9 11 10 8 8 8 9 8 6 5 5 7 7 4 4 4 3 2 2 3 6 5 5 6 7 9
9 6 6 6 6 7 7 7 7 4 2 4 5 3 2 2 3 5 5 4 4 5 4 3 3 7 7 8 11 9 7 9 10 13 18 23 26 26 24 22 24 26 25 24 23 24 26 26 25 24 23 24 22 21 21 17 15 17 16 15 17 16 13 13 15 14 13 12 11 10 10 9 11 10 9 8 8 9 8 6 6 6 6 5 4 4 4 2 1 1 3 6 6 5 5 6 7
8 7 5 7 9 8 5 5 7 2 2 5 7 5 1 2 4 4 2 1 5 7 5 4 4 3 5 8 11 10 10 10 10 11 15 21 24 24 23 22 24 25 23 24 23 24 25 25 26 25 23 23 22 21 19 16 16 16 14 15 16 15 14 13 15 14 13 13 12 11 11 10 10 10 10 9 7 7 7 6 6 6 5 4 4 5 4 3 2 2 1 4 6 5 5 6 6
7 9 6 10 12 8 7 9 9 4 2 5 8 4 0 2 2 3 3 3 6 7 5 4 5 4 3 5 10 9 10 11 11 11 13 18 21 22 24 25 25 24 22 24 24 24 25 25 26 24 22 23 22 21 19 17 18 16 15 17 16 15 15 14 15 15 14 14 13 13 11 10 10 10 10 8 6 7 7 7 6 6 5 4 5 4 2 3 2 2 2 2 5 5 5 7 8
3 7 6 15 15 11 15 15 10 4 1 4 6 3 1 4 6 6 4 4 6 5 5 5 5 4 5 4 9 8 9 10 10 10 12 17 20 21 25 27 25 24 24 24 24 24 24 25 26 24 23 23 22 20 19 18 19 17 17 19 17 17 18 16 16 17 17 16 14 12 12 12 12 10 9 8 8 7 7 8 7 6 5 4 4 4 2 4 4 3 3 2 2 4 5 7 8
2 5 7 17 16 16 20 17 9 3 2 6 7 4 2 3 6 7 7 6 8 6 6 6 5 4 5 5 8 8 8 10 10 10 11 16 19 21 24 26 25 24 25 25 23 23 25 25 25 25 23 24 23 21 20 20 19 18 18 18 18 19 19 16 17 17 16 16 14 11 11 13 13 12 10 10 10 8 8 9 8 6 6 5 4 3 3 4 5 5 4 3 2 3 5 7 8
3 2 11 19 17 18 21 16 7 4 4 3 4 3 3 2 4 8 11 9 8 8 7 8 6 6 6 6 8 9 8 9 10 10 10 14 19 21 23 26 25 24 26 26 23 24 26 25 26 25 23 24 24 22 21 21 20 18 17 17 18 19 18 16 17 16 15 16 14 13 12 12 12 12 11 11 10 9 10 10 9 7 7 6 5 3 3 4 7 7 4 4 4 3 5 7 8
7 5 11 18 16 18 19 12 6 5 6 3 3 2 2 1 2 7 11 10 10 11 11 10 8 7 8 7 8 11 8 8 10 10 11 14 19 23 23 25 25 24 27 28 25 26 28 26 26 25 22 24 25 23 22 22 21 19 17 16 16 16 16 15 15 16 16 15 15 15 14 13 12 12 12 11 10 9 9 9 8 8 8 7 6 4 4 6 7 5 4 5 5 4 4 6 5
7 7 6 13 14 15 13 7 6 6 3 3 8 7 2 1 3 5 7 7 11 12 10 10 9 9 9 7 8 11 9 8 9 10 12 16 21 23 24 25 25 24 26 28 27 27 29 28 27 25 23 25 25 23 23 23 22 21 18 16 17 16 15 15 15 16 16 15 16 16 15 15 14 12 12 12 10 9 9 9 7 7 8 7 5 4 5 7 7 6 4 5 5 4 4 4 3
5 4 2 3 6 9 7 3 5 5 1 3 12 12 4 0 3 6 6 7 11 11 8 8 9 9 9 8 7 9 10 9 9 9 12 18 22 22 24 25 25 25 25 28 29 28 29 29 28 26 24 25 25 23 23 24 23 22 20 17 17 17 17 17 16 17 17 16 17 17 15 16 15 13 12 12 12 10 10 10 8 7 7 6 6 5 7 8 7 7 6 5 4 4 5 3 1
6 1 3 1 2 2 4 2 4 3 2 3 12 12 5 1 2 6 9 8 8 11 12 11 11 10 9 8 7 7 10 10 9 8 10 16 19 20 22 24 26 27 26 29 30 29 30 29 28 27 24 26 26 24 24 23 23 23 21 18 17 17 19 20 18 17 17 17 18 17 15 17 16 13 12 13 13 12 11 10 9 9 8 8 8 6 7 8 7 8 8 6 5 5 6 4 2
4 3 5 2 1 2 1 1 1 2 1 4 12 10 4 3 3 7 11 10 9 12 13 13 13 11 10 9 8 6 7 11 10 8 9 12 15 19 21 21 26 29 27 30 30 29 30 29 29 28 25 26 28 25 25 24 23 24 22 18 18 18 18 20 19 17 18 17 17 17 16 17 17 14 14 14 13 12 12 11 11 11 10 9 9 8 8 8 7 9 10 8 7 6 6 4 3
2 4 4 3 2 1 2 2 2 2 2 5 9 7 2 2 2 5 11 12 12 12 13 15 14 12 11 10 9 7 6 10 11 10 10 11 14 20 22 20 24 29 29 31 31 29 29 28 29 29 25 25 28 26 26 25 23 23 22 19 19 19 17 18 20 19 18 17 17 17 16 17 17 15 14 14 13 12 13 12 11 11 10 10 10 9 9 8 8 10 10 8 7 6 5 4 3
4 4 5 2 2 2 2 2 3 3 2 4 6 4 2 1 3 5 9 12 12 10 12 14 13 10 9 8 9 8 6 8 10 10 10 11 16 22 24 21 22 30 32 31 31 29 29 29 29 29 26 25 28 27 26 26 23 23 23 20 19 20 17 17 19 19 18 18 17 17 16 16 17 16 14 13 13 14 14 13 13 12 11 12 10 9 9 9 9 10 9 8 7 6 5 5 3
4 4 5 2 3 2 1 3 5 5 4 3 3 1 1 1 3 2 4 9 10 9 10 13 13 9 7 8 9 8 6 7 8 10 9 11 18 22 23 22 22 30 33 31 31 31 30 30 30 30 28 27 28 27 27 27 24 23 23 21 20 20 18 17 18 18 17 17 17 18 17 16 16 16 15 14 14 15 14 14 14 13 12 12 11 10 10 9 8 9 8 7 7 6 6 5 5
2 3 4 6 5 4 2 1 3 5 5 1 1 1 2 1 2 0 5 8 10 10 11 13 14 11 8 7 8 8 7 7 7 9 8 11 17 20 22 23 22 29 32 31 33 33 31 32 31 29 29 28 28 27 27 27 24 23 23 22 21 21 20 18 18 18 17 17 16 16 16 16 15 15 15 14 13 14 14 15 15 13 12 11 11 10 11 10 9 8 7 6 6 7 6 6 6
2 2 2 4 4 5 1 2 1 1 3 1 2 1 1 2 2 2 5 7 10 12 12 13 14 14 11 8 7 8 8 7 6 8 9 11 16 19 22 24 24 28 32 33 34 34 33 33 32 30 29 29 29 27 27 27 25 24 24 23 22 22 21 19 19 18 17 16 17 16 16 16 15 14 14 15 14 13 14 15 15 14 13 11 10 11 11 11 10 9 8 7 6 6 6 6 7
4 2 4 1 2 4 1 2 2 1 2 1 1 3 3 3 4 6 9 9 11 13 12 14 15 15 14 11 9 9 8 6 5 5 8 10 14 19 22 25 25 26 31 35 35 34 33 33 32 31 30 29 29 27 26 27 26 25 24 24 23 22 21 20 19 18 18 17 17 16 16 16 15 14 14 15 15 15 15 15 14 14 14 12 11 11 11 11 11 9 9 8 7 7 7 7 7
3 3 4 1 2 4 2 3 3 2 2 3 3 3 3 3 4 8 11 10 11 13 13 14 16 16 15 13 12 11 10 9 6 4 6 9 15 20 23 26 26 25 30 36 35 33 33 33 32 31 29 28 28 27 26 26 26 25 24 24 24 22 22 20 19 19 19 19 18 17 16 16 15 14 15 15 15 16 16 16 15 14 14 13 13 13 12 11 11 9 9 8 7 8 8 7 7
2 1 3 3 2 2 3 2 3 4 3 3 4 2 3 2 2 4 8 8 9 12 13 12 13 15 15 14 14 13 12 11 8 5 5 8 16 22 23 27 28 26 29 34 34 32 33 32 31 30 29 27 27 27 27 27 26 24 23 24 25 23 22 21 20 19 19 19 18 17 17 16 16 16 16 16 15 16 17 17 16 15 15 14 14 14 14 13 13 11 10 9 9 9 8 8 7
4 4 3 5 4 2 1 3 4 3 3 3 5 4 1 3 3 2 3 4 5 6 9 9 11 13 14 13 13 13 13 12 10 7 4 6 14 21 22 25 28 27 28 32 33 34 33 32 31 30 29 28 27 27 27 27 27 25 24 24 24 23 23 22 20 19 19 19 18 18 18 17 16 16 16 16 16 16 17 17 16 16 16 16 16 14 15 15 14 13 12 12 12 11 9 8 8
Wind_Direction
142 144 133 112 118 139 184 177 102 5 88 79 182 146 33 91 89 77 69 69 73 53 55 71 77 76 83 91 94 63 42 104 124 123 126 145 155 161 157 153 159 152 145 140 136 135 136 140 129 121 112 108 108 106 107 109 113 114 112 109 106 105 105 108 108 109 112 114 114 114 116 119 121 123 123 124 125 119 116 117 118 115 113 111 109 108 106 106 108 109 107 106 105 104 105 104 103
121 116 76 301 218 198 223 267 86 13 30 73 292 170 138 88 82 97 113 99 82 85 76 78 79 75 84 86 78 65 38 37 89 87 102 136 149 163 160 155 155 149 143 139 140 139 139 139 128 120 114 115 114 112 115 115 120 120 116 112 112 113 112 112 112 114 116 117 116 118 119 118 120 124 125 126 126 119 117 118 117 115 114 112 110 109 107 106 110 113 110 107 105 104 104 102 101
98 41 192 212 245 257 188 63 82 46 48 86 115 156 138 107 108 123 129 103 101 101 84 84 80 76 82 73 66 80 66 43 88 92 110 136 146 157 155 151 150 146 139 140 145 144 140 134 126 120 117 118 116 116 117 118 122 123 121 117 118 117 120 119 117 121 122 121 121 123 121 118 118 122 125 124 122 120 119 118 116 116 115 113 111 111 108 107 111 114 112 109 107 106 105 103 104
132 358 149 168 297 351 4 56 80 93 77 61 113 140 122 110 117 109 108 104 106 98 81 80 77 76 84 86 88 91 96 77 98 110 125 146 148 151 152 149 146 139 137 144 149 145 136 130 125 118 115 115 114 116 115 114 115 118 121 121 125 124 124 123 122 125 125 124 125 126 123 120 118 119 124 122 118 118 118 118 117 117 116 113 113 112 109 110 111 113 112 110 109 109 108 107 107
158 23 114 141 79 309 33 66 63 83 136 198 124 125 111 117 122 110 110 107 103 98 102 102 99 102 87 92 104 98 117 117 116 121 131 148 147 149 152 148 142 136 142 149 146 141 133 132 128 119 117 116 114 115 112 110 109 112 117 119 126 127 127 127 129 128 124 123 123 124 120 118 122 125 127 126 122 119 119 119 119 119 116 114 114 112 110 112 112 112 111 109 110 109 109 110 109
160 115 83 96 83 32 43 38 103 120 190 161 187 120 114 122 116 110 110 107 106 104 110 108 104 104 88 88 91 108 131 124 122 128 134 144 148 150 147 142 136 135 145 147 141 139 136 135 128 123 122 119 114 111 109 107 108 111 114 116 119 123 128 130 131 129 124 122 121 122 120 123 130 132 128 125 124 123 122 121 121 119 115 115 114 112 110 111 111 111 110 110 111 111 111 110 109
160 140 40 53 67 56 53 314 110 328 201 156 208 122 117 116 110 111 116 114 100 89 95 92 97 98 92 102 97 109 120 117 122 131 135 142 146 141 135 132 128 132 141 141 138 136 135 131 126 125 122 119 115 111 110 110 113 114 115 117 118 123 126 127 127 126 126 125 125 125 127 130 134 132 125 122 123 123 123 121 118 117 115 115 112 111 111 110 111 111 111 111 113 114 114 112 110
158 119 322 85 76 54 105 300 86 320 176 176 251 123 120 127 124 128 133 127 111 100 99 97 101 99 95 102 99 110 114 115 125 131 135 140 138 129 128 129 126 130 136 136 134 133 130 127 125 123 121 119 117 115 114 118 122 122 122 123 123 127 130 131 130 129 129 128 129 132 132 131 133 134 128 123 124 124 123 120 118 116 115 114 113 112 111 113 113 113 114 114 116 118 119 117 111
118 17 180 94 99 72 113 12 72 283 287 231 214 119 121 132 130 137 139 124 122 114 103 106 109 103 100 98 98 107 108 115 126 133 137 137 129 122 125 130 130 131 133 133 132 130 126 123 121 120 121 120 118 117 116 120 123 124 125 127 126 129 132 133 133 132 129 127 132 136 133 130 133 134 128 124 124 124 121 120 120 118 116 113 113 112 113 114 115 116 117 117 120 123 125 122 114
31 5 50 27 98 64 78 33 22 297 292 252 142 122 124 122 106 110 119 112 115 101 97 103 103 105 108 103 102 112 115 122 129 133 134 129 123 122 124 127 130 131 131 131 128 124 121 121 119 118 120 118 116 117 120 123 122 122 123 126 128 130 132 131 132 132 127 126 133 135 131 131 134 133 129 126 125 124 121 121 121 119 117 116 115 115 115 114 116 118 118 120 123 126 127 124 118
4 9 21 26 67 31 106 99 320 292 287 251 127 130 127 116 100 92 95 98 100 100 107 110 105 108 108 102 102 120 124 128 130 129 129 126 124 123 123 124 128 130 129 127 123 120 119 118 115 116 116 115 115 117 123 125 122 124 125 126 127 130 131 129 132 131 127 128 133 134 131 130 133 134 131 127 125 124 123 123 122 120 118 118 119 119 120 119 119 119 120 122 125 127 128 125 119
41 360 314 76 93 15 127 127 168 279 293 167 131 134 118 115 106 109 105 104 111 117 120 118 118 118 109 105 115 126 128 129 127 126 126 127 125 122 123 125 126 127 126 123 120 120 118 117 115 113 111 109 110 113 118 121 120 124 127 128 128 129 128 127 130 129 128 130 132 132 131 130 132 134 133 128 126 125 126 127 125 125 124 124 125 125 126 125 122 120 122 123 126 128 128 126 121
131 167 249 150 147 125 111 119 182 273 294 140 135 128 116 118 138 153 134 123 129 124 117 118 126 125 113 116 127 129 129 128 127 121 116 118 120 119 120 122 123 123 122 121 119 118 117 117 117 113 111 107 105 106 110 114 115 122 126 126 126 125 124 126 128 129 132 131 130 129 128 128 130 131 131 128 125 126 128 131 131 129 127 128 131 132 130 129 126 124 124 124 124 123 123 125 124
133 157 161 169 25 101 122 134 200 204 180 165 102 92 95 119 164 178 134 120 121 121 128 133 133 124 120 128 129 131 135 132 127 118 110 112 114 115 117 119 122 122 121 120 118 118 118 119 118 116 113 110 107 107 109 110 112 119 122 122 123 122 124 126 127 129 131 129 127 127 125 125 128 129 128 127 127 130 132 135 137 132 128 129 132 133 132 131 129 126 124 121 118 118 120 122 124
124 279 105 62 51 115 176 163 179 161 192 277 14 65 64 322 222 143 118 114 118 131 137 138 138 128 132 141 133 142 145 135 128 123 118 114 114 113 115 118 121 122 121 121 120 119 119 118 117 117 114 112 113 113 112 112 113 116 118 120 121 123 125 126 128 128 126 125 124 124 122 122 126 125 123 126 130 132 135 137 137 131 128 130 131 133 134 133 129 125 122 117 114 118 123 124 125
146 209 92 360 300 142 196 165 158 153 202 280 324 62 95 295 305 126 145 132 135 139 136 142 145 132 135 139 132 142 145 135 130 129 125 119 118 116 116 118 121 121 120 122 122 123 121 118 119 121 118 117 118 117 115 112 110 111 115 119 120 123 125 125 126 126 125 124 122 121 121 120 120 121 122 128 133 135 138 139 138 133 129 130 132 134 133 131 126 121 117 114 115 121 126 127 127
137 129 106 162 203 190 191 167 163 152 169 239 282 67 119 214 287 276 231 116 134 137 137 144 139 130 129 128 132 142 145 136 129 126 125 124 122 120 120 121 122 120 121 125 127 129 127 126 128 125 121 121 122 120 117 115 113 113 114 117 120 124 124 123 124 125 125 123 122 121 121 121 122 124 128 132 135 136 138 138 139 135 133 134 135 134 130 125 121 116 113 112 117 124 126 126 128
126 360 173 175 191 211 185 165 184 145 149 183 201 183 141 167 230 267 27 83 120 129 132 137 129 119 116 124 133 142 143 134 128 124 127 132 129 127 125 125 126 123 125 128 130 132 132 134 133 123 121 121 123 124 121 119 119 118 117 118 119 122 123 124 124 123 122 120 120 122 122 124 126 128 131 134 135 135 135 134 134 133 135 138 135 130 125 120 116 114 113 115 121 127 127 126 126
141 168 204 221 191 190 147 148 213 168 152 161 159 182 159 166 198 180 115 131 142 128 128 127 118 114 119 128 135 142 139 132 130 126 129 138 134 131 128 127 128 128 132 133 133 136 136 136 130 121 120 120 123 126 124 122 122 121 121 121 121 122 122 124 123 121 120 119 121 124 125 124 124 125 128 130 131 129 127 126 126 129 134 134 131 126 122 119 117 116 117 119 126 130 128 128 125
178 163 175 249 205 165 130 145 221 233 150 144 136 177 190 182 198 154 154 163 154 127 125 123 120 126 131 133 138 142 135 132 135 129 132 137 129 127 128 130 133 134 138 136 137 140 137 134 129 120 119 121 124 126 126 124 125 127 125 124 123 123 123 124 125 125 127 127 128 129 128 126 124 123 124 125 127 125 123 122 123 128 132 132 131 126 122 121 122 123 125 126 131 134 132 134 132
129 59 185 216 244 177 151 157 211 216 149 141 147 164 181 192 200 178 165 140 117 122 127 129 131 134 134 136 142 140 136 139 141 138 140 138 134 132 131 132 134 135 138 137 140 142 139 136 130 125 125 126 125 127 127 123 126 130 129 127 124 124 126 127 130 134 136 137 138 138 134 131 128 125 124 124 125 124 124 123 123 128 131 130 127 123 123 124 126 128 133 136 136 140 142 147 148
81 339 17 88 34 54 165 169 183 178 140 130 143 161 178 186 187 181 159 121 122 127 129 132 133 134 138 143 141 137 142 146 145 147 145 145 148 138 132 133 132 134 136 136 141 142 142 140 134 133 135 129 127 130 127 124 127 130 130 128 126 127 130 132 137 142 145 145 145 143 139 136 131 130 128 127 124 119 118 119 122 125 125 124 122 122 125 128 136 136 140 143 139 151 172 177 181
93 346 20 65 43 102 128 293 72 114 121 129 151 183 186 154 160 175 145 132 134 126 129 132 132 136 142 143 139 142 149 148 150 152 147 150 149 134 132 135 133 136 136 136 139 140 144 145 141 142 141 135 133 134 129 127 129 130 129 129 128 130 135 136 141 147 147 146 144 142 142 141 138 136 133 129 124 114 113 121 124 124 122 120 117 119 125 138 153 147 148 157 161 194 218 219 219
81 59 181 88 37 85 80 297 349 101 115 133 110 346 220 147 143 153 118 124 127 124 127 130 134 140 145 144 143 147 148 148 152 151 149 149 140 131 135 137 136 137 136 139 141 141 149 151 149 146 142 139 137 133 129 130 133 133 131 133 133 134 141 142 145 147 144 141 136 134 139 141 140 137 134 129 124 123 132 139 135 129 123 119 117 116 113 122 102 320 267 260 245 238 238 282 245
97 142 161 91 48 65 49 321 356 54 88 87 81 31 260 164 128 130 131 128 123 124 127 132 141 145 149 147 146 148 146 149 149 149 149 141 132 130 135 137 139 138 137 143 145 146 154 153 151 148 145 142 139 137 137 140 141 139 140 145 144 143 146 145 146 145 143 140 134 134 138 138 138 138 136 134 133 136 146 148 139 127 117 115 120 116 98 85 18 316 297 292 276 252 233 276 167
115 115 106 88 76 74 39 7 5 15 25 100 108 116 281 241 117 131 162 138 124 125 131 139 147 150 155 150 151 152 145 150 147 145 144 134 131 129 132 137 141 143 142 147 150 150 152 151 150 148 146 145 143 145 146 148 147 145 149 152 148 146 144 143 144 144 144 142 136 137 140 138 139 140 140 138 138 141 147 148 139 124 114 113 111 95 97 59 287 282 322 320 329 277 219 207 182
116 110 101 90 73 52 54 49 27 11 1 69 111 115 283 285 112 140 184 143 128 130 137 145 152 155 158 154 155 150 144 150 144 142 145 137 134 132 138 142 143 145 145 149 152 150 150 149 149 147 145 143 145 148 148 148 149 150 151 149 147 144 143 143 145 146 147 146 139 140 142 140 140 142 141 141 144 146 152 152 142 129 112 106 96 106 143 153 184 163 68 350 19 58 163 197 259
123 116 94 91 86 45 48 75 74 57 15 13 76 118 220 278 114 169 189 145 130 133 143 151 157 157 157 155 152 145 141 144 143 147 148 141 140 141 146 147 144 146 148 152 153 149 149 149 148 148 145 144 147 147 148 150 151 152 149 149 150 146 145 144 143 142 143 147 148 149 146 144 150 153 147 146 150 151 151 142 128 122 116 129 136 135 151 143 132 126 85 85 59 80 144 213 274
123 114 97 119 136 94 43 36 78 96 47 356 14 99 235 281 149 186 184 142 131 136 150 154 156 155 151 151 143 138 141 142 146 149 144 143 144 143 146 148 146 146 148 153 154 150 149 151 150 150 147 148 149 146 147 152 152 149 147 151 153 150 149 145 141 138 136 142 149 155 152 149 158 161 151 147 148 146 142 134 126 128 132 145 141 133 148 131 113 106 92 114 164 171 192 244 338
118 105 102 130 129 81 41 43 81 88 70 279 189 124 297 136 160 206 180 139 135 143 154 152 151 147 144 148 142 139 142 145 150 146 146 149 144 140 144 145 144 144 146 152 155 153 153 156 157 156 153 150 149 147 148 151 151 148 144 149 152 151 152 147 140 138 139 142 146 153 155 154 158 156 157 161 156 147 138 136 141 139 139 142 130 125 131 115 101 88 74 88 125 150 154 273 15
125 110 97 103 91 11 1 17 78 98 149 237 188 141 271 247 198 261 206 140 140 150 153 148 146 138 143 151 141 135 141 149 147 141 146 146 140 141 142 141 141 142 148 153 154 154 156 158 158 161 160 155 155 156 153 150 148 146 143 146 148 146 146 143 142 148 150 146 143 144 145 149 152 152 159 162 156 151 142 137 135 131 133 129 113 113 110 94 84 70 59 68 82 104 47 21 342
135 119 88 53 78 109 319 309 176 150 180 264 14 126 222 270 252 276 262 136 144 154 149 148 142 138 150 157 139 134 152 154 140 141 149 145 142 144 141 140 141 147 155 155 152 153 155 157 157 159 160 159 162 164 158 152 148 146 142 141 144 143 141 143 149 156 155 151 150 146 145 150 150 146 147 144 145 147 143 139 130 120 118 110 99 102 95 83 78 64 55 61 59 44 18 7 338
255 132 134 141 143 153 236 235 226 231 143 47 23 115 173 272 253 270 302 141 155 155 148 148 141 142 155 155 140 141 168 160 138 150 157 145 143 142 138 142 148 156 159 150 148 153 156 157 156 157 158 160 163 163 160 159 156 155 152 148 148 147 146 152 154 153 154 158 160 156 154 155 149 141 135 136 143 146 148 143 127 117 106 100 94 95 99 96 97 81 67 63 58 50 26 344 326
240 155 135 163 161 156 164 154 218 216 142 91 36 88 161 204 225 254 285 179 170 158 153 152 142 144 160 154 144 156 176 157 141 161 155 140 140 139 141 149 154 157 151 146 151 154 154 154 155 156 157 160 161 159 158 159 157 154 158 161 159 158 159 161 156 153 156 157 158 156 154 150 145 137 125 134 144 145 153 144 123 124 112 101 96 91 98 102 102 91 65 50 31 30 48 17 307
184 180 153 152 162 167 161 118 226 201 164 134 90 50 286 179 203 226 257 220 184 184 162 152 143 144 164 159 148 170 177 146 150 161 147 139 142 143 149 154 153 154 149 150 154 152 151 153 155 156 156 159 159 153 150 152 152 150 155 160 160 159 160 162 160 158 160 161 158 151 146 146 146 135 117 130 144 139 149 148 123 124 114 99 103 96 88 95 99 81 54 32 359 339 324 300 300
174 166 144 141 151 161 150 132 200 188 169 163 145 158 226 195 201 195 240 257 220 241 172 145 144 148 169 165 152 175 168 140 155 156 143 141 144 144 149 151 151 154 152 153 153 152 155 155 154 155 157 162 159 150 147 152 155 154 157 162 160 157 155 158 159 158 161 170 164 148 145 151 150 139 120 125 141 140 145 149 129 122 115 92 89 91 82 94 99 68 40 13 351 348 348 308 319
161 142 138 145 141 134 145 160 187 166 150 197 167 136 168 212 220 186 214 256 246 263 210 156 148 152 175 166 154 169 156 144 155 152 142 140 140 139 144 150 151 152 152 153 154 155 158 154 152 156 161 162 158 155 156 159 160 158 161 165 163 163 162 160 158 156 166 175 164 151 153 160 157 150 142 136 140 146 148 150 142 130 125 100 82 83 81 85 78 40 11 3 2 10 19 13 1
154 150 156 142 128 123 135 149 164 160 149 143 109 86 193 237 261 240 360 312 275 284 262 185 160 158 178 164 153 162 151 149 154 148 141 139 141 143 149 156 153 148 151 155 155 154 155 154 154 158 163 163 161 162 161 161 163 161 163 166 165 166 167 168 163 158 164 170 165 161 164 166 163 160 159 150 143 148 153 157 152 134 129 119 103 103 93 80 56 15 6 20 19 3 7 17 14
160 168 169 139 130 109 97 113 133 157 152 118 134 155 248 316 9 6 16 5 302 305 335 293 213 171 179 163 153 161 156 153 154 148 146 145 146 150 154 156 150 148 152 156 157 154 153 156 160 163 166 166 164 165 165 164 164 164 166 167 167 167 169 171 166 163 169 173 170 164 167 168 166 166 162 156 151 152 157 159 146 131 130 130 137 146 145 151 106 73 28 30 34 14 13 19 13
170 183 167 138 155 138 110 133 130 124 100 127 150 155 278 353 25 359 350 335 283 292 317 302 275 211 195 170 155 162 161 157 160 154 152 149 149 151 152 148 148 151 155 159 162 160 159 162 165 168 169 168 166 167 169 165 163 170 174 171 169 168 170 170 167 168 174 178 171 164 172 174 166 164 159 156 159 157 158 159 146 134 135 135 145 147 146 151 117 89 59 37 45 39 37 40 29
190 203 178 147 168 158 128 142 134 98 60 124 133 114 73 184 185 251 253 261 272 291 305 284 271 285 273 181 160 163 161 160 165 162 156 152 152 152 149 147 151 158 161 164 165 165 166 168 169 172 172 170 169 171 173 169 170 176 170 164 168 170 168 167 171 170 171 174 173 174 182 177 161 156 158 161 163 161 157 157 154 147 149 145 136 120 97 130 128 85 76 53 53 44 42 54 51
220 237 194 158 162 136 121 135 136 108 354 190 148 111 194 179 191 210 211 232 246 268 280 270 258 277 294 204 173 168 161 161 165 166 159 154 155 153 150 152 157 163 168 169 169 169 171 171 170 173 173 174 174 173 175 176 178 179 168 162 167 168 163 167 176 173 173 176 176 182 185 172 163 163 170 173 172 173 165 160 162 157 157 155 134 118 110 127 130 112 99 100 84 53 49 64 66
251 258 164 146 141 126 135 146 148 138 178 197 176 140 150 189 201 192 182 208 226 241 258 261 249 245 263 222 181 171 167 163 164 171 163 156 156 154 152 157 161 165 168 170 171 172 174 173 172 175 176 178 177 173 176 180 180 178 172 166 165 166 162 167 177 174 176 178 175 182 180 169 169 174 179 177 177 185 177 171 174 169 168 167 148 134 140 135 132 132 128 143 152 101 77 78 74
264 305 112 130 136 137 153 160 154 150 111 136 183 135 118 216 213 172 168 188 216 232 241 247 242 225 240 232 179 172 176 166 166 173 167 158 156 156 157 161 166 167 166 170 172 171 175 175 174 179 180 179 178 175 178 182 179 172 168 163 161 166 166 167 174 173 176 180 178 180 178 174 176 178 183 181 183 189 180 177 180 180 182 179 173 175 172 150 138 144 161 177 173 138 95 87 75
266 310 104 137 152 150 161 162 139 140 110 109 204 154 109 228 198 154 160 175 204 220 221 223 226 218 228 230 180 173 178 169 169 174 171 162 159 161 161 162 167 169 165 170 173 172 175 176 176 181 180 178 178 179 182 184 179 169 166 168 164 166 169 170 175 176 179 185 184 181 181 183 183 182 187 187 188 189 179 178 181 181 181 176 178 184 171 159 155 169 187 170 162 148 115 95 76
264 273 143 147 156 154 161 152 133 144 122 167 193 183 153 189 180 155 159 184 203 210 212 212 215 212 216 224 190 172 172 173 173 175 170 162 160 163 164 164 171 173 168 170 173 172 174 175 177 180 180 179 180 183 185 186 183 174 171 179 175 170 171 173 176 176 180 186 183 180 183 185 184 188 192 189 189 190 182 180 182 179 175 171 176 184 176 173 177 181 166 154 158 151 140 114 78
250 250 144 143 160 153 151 142 137 136 4 195 182 187 188 150 195 176 179 205 202 194 197 204 208 209 208 215 203 175 169 175 180 180 166 159 161 165 167 168 171 172 168 167 169 170 172 174 178 179 180 182 182 184 187 187 186 180 176 181 183 180 178 176 176 172 175 181 178 179 185 183 186 197 198 191 189 192 188 183 184 182 181 182 179 181 187 183 182 179 164 167 178 163 158 145 96
237 154 87 193 257 149 131 150 151 130 318 189 170 181 196 250 232 202 202 211 199 187 190 193 197 207 206 207 211 186 168 170 178 182 165 159 164 169 175 173 170 170 165 161 166 169 171 174 177 179 180 183 184 185 186 185 185 183 180 183 189 189 183 179 180 177 174 179 177 177 183 182 187 199 201 195 193 194 193 187 186 194 200 200 189 187 195 187 184 187 181 181 186 174 169 169 186
241 82 76 100 348 317 136 154 160 105 10 160 158 169 202 257 239 212 208 207 197 190 187 184 186 198 204 203 211 201 171 167 172 183 172 164 169 174 182 181 171 170 163 159 164 167 170 174 177 179 180 183 185 185 185 185 186 187 186 187 192 193 185 181 184 182 177 181 180 179 184 185 188 195 200 201 198 196 198 194 193 200 201 196 190 192 197 190 185 191 190 187 188 182 176 180 192
227 116 106 121 117 234 210 182 148 109 116 142 150 166 212 275 250 214 209 207 202 191 182 177 178 191 200 201 207 209 189 173 173 186 180 171 172 172 183 187 169 164 162 160 164 168 170 174 176 179 181 183 185 185 185 187 189 191 191 192 194 194 189 184 186 187 184 186 187 185 189 189 190 196 201 204 199 197 205 202 199 200 196 195 197 196 198 193 183 190 196 194 193 193 186 183 185
246 138 119 162 186 190 199 194 154 123 135 133 142 181 201 185 244 231 207 201 196 184 177 172 168 182 197 202 208 211 206 186 176 185 180 172 172 169 180 187 166 160 162 161 165 168 170 174 177 180 181 183 185 186 187 189 190 193 194 195 196 195 193 189 188 191 191 193 194 194 195 197 198 200 201 203 197 200 207 203 202 204 199 204 210 204 202 198 189 194 202 199 198 200 195 193 192
252 141 122 205 232 220 213 194 164 136 129 146 167 209 52 160 252 271 156 165 173 169 167 166 165 174 189 204 210 206 208 203 184 181 177 171 173 169 176 180 163 160 164 163 166 169 170 174 178 181 183 183 185 187 188 190 192 194 194 196 197 196 196 193 190 191 196 198 198 198 199 201 204 202 203 206 202 205 208 199 201 211 208 211 218 210 202 200 203 208 209 207 203 199 204 214 207
278 123 167 214 218 236 266 217 178 139 126 141 217 60 48 152 247 49 130 144 157 163 164 167 171 177 185 205 210 200 202 212 198 183 176 171 173 170 172 174 162 160 166 167 168 170 173 175 178 181 184 184 186 188 190 190 192 194 194 197 198 196 197 196 192 193 199 199 197 201 201 200 206 206 205 207 204 206 206 196 199 210 211 214 217 209 201 202 211 216 213 211 205 203 219 230 218
227 114 235 233 212 240 258 87 301 170 127 12 341 109 164 198 207 172 165 158 158 164 166 169 176 182 190 206 210 202 203 215 217 190 174 169 171 169 169 173 170 165 168 170 170 172 175 176 178 180 182 185 187 189 191 191 193 195 194 196 198 197 197 196 195 196 199 198 197 203 205 201 205 207 203 204 205 203 199 195 198 205 210 213 211 207 205 207 214 221 219 213 206 214 227 226 226
229 258 315 352 176 232 213 127 229 227 125 142 257 228 210 209 204 179 178 179 168 165 166 173 182 187 193 201 207 211 210 215 233 204 178 171 171 169 168 173 175 168 167 171 171 173 176 176 179 180 182 186 187 189 191 191 193 195 196 197 197 198 198 197 198 198 198 200 200 202 206 205 205 205 202 203 204 201 197 197 198 202 209 209 205 209 213 211 216 222 219 215 215 224 230 227 229
261 292 304 303 174 193 175 172 184 150 148 168 186 237 244 230 216 187 184 185 171 167 170 177 186 189 192 197 201 208 212 212 221 212 188 177 172 171 169 171 175 170 166 169 171 172 175 177 178 180 183 186 187 189 190 191 193 195 196 198 198 199 199 199 201 201 199 202 202 199 203 206 203 201 201 201 202 200 200 203 202 202 208 207 204 210 214 215 222 226 221 221 227 234 237 236 230
230 263 281 272 262 178 169 216 193 157 173 176 154 199 260 273 255 191 180 176 169 172 175 178 184 187 190 194 195 197 203 208 210 206 199 185 175 173 171 170 174 171 163 165 170 172 174 176 177 180 183 186 188 189 191 192 193 194 196 198 199 200 201 201 205 206 201 201 203 202 203 206 205 204 204 206 206 204 204 207 206 204 208 213 210 208 211 217 221 222 220 222 230 236 237 235 231
195 157 217 241 248 226 194 267 244 178 172 188 155 147 289 330 360 70 123 140 150 160 166 173 180 183 187 191 191 192 196 200 205 203 205 198 179 173 172 171 172 173 166 164 169 172 172 175 177 180 183 186 188 190 191 193 193 194 198 198 198 201 201 203 208 209 207 206 207 208 207 207 206 206 207 211 210 205 204 207 209 207 209 216 215 208 210 217 219 218 218 222 230 236 235 234 235
Height
784 786 786 787 787 788 790 791 807 809 809 823 818 818 807 789 790 794 796 793 793 789 780 781 781 781 790 800 803 799 801 804 809 822 832 822 814 820 819 821 823 822 825 825 825 826 826 827 828 829 829 830 831 831 832 833 833 834 834 835 836 836 837 838 838 839 840 840 841 841 841 842 842 843 843 843 844 845 846 847 847 848 848 848 849 850 850 849 850 851 851 852 853 853 854 854 854
785 787 786 788 786 790 795 792 812 818 816 825 815 812 803 790 795 799 798 794 793 787 779 781 782 785 789 792 792 797 807 802 797 807 814 814 817 821 820 823 823 823 825 825 826 826 827 828 829 830 830 831 831 832 833 833 834 834 835 836 837 837 838 839 839 840 840 841 842 842 842 843 843 844 845 845 845 846 847 848 848 849 849 850 851 851 851 851 851 852 853 854 854 855 855 856 856
787 788 786 789 788 789 794 796 814 823 822 825 815 804 797 798 801 797 794 789 786 780 781 783 785 790 790 798 799 805 817 807 798 805 812 816 818 820 823 823 823 825 825 825 826 826 828 828 830 830 830 831 832 833 833 834 834 835 836 836 837 838 838 839 840 840 840 841 842 842 843 844 845 846 847 847 848 848 848 849 849 850 851 851 852 852 852 853 853 854 854 855 855 856 857 857 857
787 787 786 787 791 794 799 806 814 820 826 825 816 803 796 801 799 794 790 785 781 779 784 787 792 791 791 806 807 808 818 811 806 807 812 817 817 819 822 824 825 826 826 826 826 827 828 829 830 830 831 831 832 833 833 834 835 835 836 837 838 838 839 840 841 841 841 842 842 842 843 845 846 848 849 849 849 849 850 850 850 851 852 852 853 853 853 854 855 855 856 856 856 857 858 859 859
787 787 786 786 795 800 803 811 813 817 824 823 817 803 795 797 795 794 788 784 782 782 786 790 798 793 791 802 804 811 816 812 811 808 812 816 817 820 822 824 826 826 827 827 827 828 829 830 830 830 831 831 832 833 833 835 835 836 837 837 838 838 839 840 841 841 842 843 843 844 845 846 847 848 849 850 850 850 851 851 852 852 853 853 854 854 854 855 855 856 857 857 858 858 859 860 860
787 788 786 786 793 797 805 816 818 819 814 813 814 801 794 793 793 793 789 786 782 782 785 789 796 795 799 800 800 808 809 809 811 810 812 816 819 821 823 824 825 826 827 827 828 828 829 830 831 831 832 832 833 833 834 835 835 836 837 837 838 838 838 839 840 841 843 844 844 845 846 848 849 849 849 850 851 851 852 852 853 853 854 854 854 855 855 856 856 857 858 858 859 859 860 861 862
786 789 790 792 796 798 813 821 820 819 808 805 806 797 794 792 790 791 792 791 788 785 785 789 791 797 808 804 804 806 803 806 808 811 813 815 820 821 823 824 825 826 827 828 828 829 830 831 831 832 832 833 833 834 834 835 835 836 837 837 838 838 838 838 839 841 843 844 845 846 847 849 850 850 850 852 852 852 852 853 854 854 855 855 856 856 856 857 858 858 859 859 860 860 862 862 862
786 791 793 800 807 807 817 820 817 816 806 802 798 792 792 789 789 792 794 794 795 792 790 793 791 802 813 805 812 810 804 808 808 813 815 816 820 821 824 824 825 827 827 828 828 830 830 831 832 832 833 834 834 834 835 835 835 836 837 837 838 838 838 838 840 842 843 844 846 847 848 849 850 851 851 852 853 853 853 854 855 856 857 857 857 858 858 858 859 860 860 860 861 861 862 863 863
786 792 795 803 813 814 818 820 816 811 805 801 796 790 789 787 787 791 793 793 793 795 794 795 793 805 814 810 815 811 806 812 812 815 815 818 820 821 824 824 826 826 828 828 829 830 831 832 833 833 834 834 834 834 834 835 835 836 837 837 838 838 838 840 841 842 843 845 847 847 848 849 850 851 852 853 854 854 855 856 857 858 858 858 859 859 859 860 860 861 861 862 862 862 863 864 864
790 794 799 807 814 819 822 821 816 811 805 798 793 789 788 786 787 789 792 794 793 796 797 794 797 805 813 816 818 812 811 814 814 816 817 819 820 822 825 825 826 826 828 829 829 831 832 833 833 834 834 834 835 834 834 834 835 836 837 837 838 839 839 840 841 843 844 846 847 848 849 849 850 851 852 853 854 855 855 857 858 859 859 860 860 860 861 861 861 862 862 863 863 863 864 864 865
798 798 800 812 819 824 825 822 818 812 804 795 792 788 786 785 788 790 791 795 794 798 799 797 805 808 811 818 818 813 812 815 815 816 818 819 821 823 825 826 827 827 828 829 830 831 832 833 833 834 834 834 835 834 834 835 836 836 837 837 838 839 840 840 841 843 844 846 847 848 849 849 850 851 852 853 855 856 856 858 859 860 860 861 861 861 862 862 862 862 863 863 864 865 865 865 865
804 806 804 818 823 823 821 821 819 812 805 798 796 789 784 785 790 794 794 799 797 801 801 799 806 806 814 823 818 813 813 816 816 817 819 820 821 823 826 827 828 828 828 829 830 832 832 833 834 835 835 835 835 834 834 835 836 836 837 838 838 840 840 841 842 844 845 847 848 849 850 850 851 852 853 854 856 857 858 859 860 861 861 862 862 862 862 863 863 863 864 864 865 865 866 866 866
803 808 811 818 815 817 819 820 819 814 809 800 796 788 783 788 793 793 794 798 797 804 803 797 800 802 816 823 816 814 814 816 817 818 819 819 822 824 826 827 828 829 829 830 831 832 833 833 834 835 835 835 835 835 834 835 837 836 837 838 839 840 841 842 843 845 846 847 849 850 851 851 852 853 854 855 857 858 859 860 861 862 862 863 863 863 863 864 864 864 865 865 866 866 867 867 867
797 802 809 815 812 815 819 822 821 818 813 799 792 787 785 790 790 788 791 800 801 801 799 792 794 805 816 819 820 818 815 816 817 819 820 821 823 824 826 828 829 830 830 831 832 833 833 834 835 835 835 836 836 835 835 836 837 837 838 838 839 840 842 843 844 846 848 849 850 851 852 852 853 854 855 857 858 859 860 861 862 863 863 864 864 864 864 865 865 865 866 866 866 867 867 868 868
795 798 804 813 816 819 819 820 820 819 814 799 793 790 792 790 785 787 790 799 801 790 791 792 792 805 815 818 822 817 813 815 816 819 821 823 824 825 827 828 830 830 832 832 832 833 834 835 835 836 836 836 836 836 836 837 838 839 839 840 840 841 843 845 846 848 849 850 851 852 853 853 854 855 856 858 859 861 862 863 863 864 864 864 865 865 866 866 866 866 866 867 867 868 868 869 869
792 796 806 816 819 822 820 816 817 821 813 800 794 791 799 794 783 789 784 787 795 786 790 797 793 800 809 812 814 810 811 814 816 820 821 824 825 826 828 829 831 831 833 833 833 834 834 836 835 836 837 837 837 837 837 838 839 839 840 841 841 843 845 846 848 849 850 851 852 853 854 855 856 856 858 860 861 863 863 864 864 865 865 865 866 866 867 867 867 867 867 868 868 868 869 869 870
791 797 811 819 819 819 816 814 815 816 809 801 796 793 802 800 787 784 777 779 790 791 792 795 793 796 801 805 808 808 811 813 815 820 821 825 826 827 829 830 831 832 834 834 834 835 835 836 835 836 837 838 838 837 838 838 840 840 841 842 843 845 846 848 849 850 852 853 854 855 856 857 858 859 861 862 863 864 865 865 865 866 866 866 867 867 868 868 868 868 868 869 869 869 870 870 871
794 804 812 816 816 811 805 807 805 802 804 802 798 795 800 802 793 784 782 787 790 793 795 794 794 796 800 804 807 809 811 813 815 819 822 824 826 827 828 830 831 833 834 834 835 835 836 836 836 837 838 839 839 838 839 839 840 841 842 843 845 847 847 849 850 851 853 854 856 856 857 859 860 861 862 863 864 865 866 866 866 867 867 867 868 868 868 869 869 869 869 870 870 871 871 871 871
795 805 812 811 807 801 794 798 798 796 800 799 797 796 796 798 793 786 792 798 793 798 801 798 801 802 804 806 809 811 811 813 815 819 822 824 826 827 828 830 832 833 834 835 835 836 836 837 837 837 838 839 839 839 840 840 841 842 843 845 846 848 849 850 851 853 854 856 857 858 859 860 861 862 863 864 865 866 866 867 867 867 868 868 868 869 869 869 870 870 870 871 871 871 871 872 872
791 798 810 806 798 796 791 794 797 793 792 796 797 795 796 794 789 788 796 800 797 802 804 803 808 808 807 807 808 811 812 814 816 819 822 824 825 826 828 830 832 834 835 835 835 836 836 837 838 838 839 840 840 840 841 842 843 844 845 846 848 849 851 852 853 854 855 857 858 859 860 861 862 863 864 865 865 866 867 867 868 868 868 869 869 870 870 870 870 871 871 872 872 872 872 872 872
791 795 803 798 793 797 793 791 793 789 787 793 796 797 798 792 787 789 794 803 805 803 800 801 805 807 807 808 808 811 813 815 816 819 822 824 825 826 828 830 832 834 835 836 836 836 836 837 838 839 839 840 841 842 842 843 844 846 847 848 849 850 852 853 854 856 857 858 859 860 861 862 863 863 865 865 866 866 867 868 868 869 869 870 870 870 871 871 871 872 872 872 872 872 872 872 872
797 799 795 792 794 799 795 789 790 788 787 791 796 799 796 789 789 791 794 805 807 799 796 797 799 802 804 806 808 810 813 815 816 818 821 823 825 826 828 830 832 834 835 836 836 836 837 838 839 839 840 841 842 843 844 845 846 847 848 850 850 852 853 855 856 857 858 859 860 861 862 862 863 864 865 866 866 867 868 869 869 870 870 870 871 871 872 872 872 873 872 873 873 872 873 872 872
799 802 793 793 794 797 797 793 791 788 791 795 796 794 790 792 795 790 792 799 795 790 791 795 797 799 802 804 807 810 813 814 816 817 819 821 823 825 828 830 832 833 835 836 836 837 837 838 839 839 840 841 843 844 845 846 847 848 850 851 852 853 855 855 856 857 858 860 861 862 862 863 864 865 865 866 867 867 868 869 869 870 870 871 871 871 872 872 873 873 873 873 873 872 872 872 872
798 803 796 794 794 795 797 795 790 787 793 795 793 795 793 796 798 791 792 792 788 787 789 793 798 799 802 804 807 810 812 813 815 816 818 820 822 825 827 830 832 834 835 837 837 837 837 838 839 840 841 842 843 845 846 847 848 849 850 852 853 854 855 856 857 858 859 860 861 862 863 864 864 865 866 867 867 868 869 869 870 870 870 871 871 871 872 872 873 873 873 873 872 872 871 871 872
798 802 799 796 796 796 794 794 791 790 794 794 797 808 804 794 793 794 794 790 786 787 790 794 798 800 803 805 807 809 811 813 814 815 817 819 821 824 827 830 832 834 835 837 838 837 838 838 839 840 841 842 843 845 847 848 849 850 851 852 853 855 856 856 858 859 860 861 862 863 863 864 865 866 867 867 868 868 869 870 870 871 871 871 872 872 872 872 872 872 873 872 872 872 871 871 872
797 797 799 798 799 796 795 797 797 797 797 796 803 814 808 793 791 798 794 788 787 788 793 797 799 803 804 805 807 807 810 812 813 815 817 818 821 824 827 829 831 833 835 837 838 838 838 838 839 841 841 842 843 845 846 848 850 851 852 853 854 855 856 857 858 859 861 862 862 863 864 865 865 866 867 868 868 869 869 870 871 871 871 872 872 872 872 872 872 872 872 872 872 871 871 871 873
791 793 796 796 800 797 798 802 801 802 802 800 804 811 808 796 797 805 795 786 787 791 797 799 801 805 804 805 805 806 809 810 813 815 817 818 820 824 826 829 831 833 835 837 838 838 839 839 840 841 842 843 844 845 846 848 850 851 852 853 855 856 857 858 859 860 861 862 863 863 864 865 866 867 868 868 869 869 870 870 871 871 871 872 872 872 872 872 872 872 871 871 871 870 871 871 872
787 791 796 800 802 802 801 802 801 802 805 804 803 810 810 800 801 804 793 785 788 794 800 800 802 805 803 805 805 805 808 810 812 814 816 818 820 823 825 827 830 832 834 836 838 839 840 840 841 841 842 844 845 846 847 848 850 852 853 854 856 857 858 858 859 860 861 862 863 864 865 866 867 868 868 869 869 870 870 871 871 872 872 872 872 872 872 872 872 872 871 871 870 870 871 871 872
788 788 800 807 803 807 807 803 802 802 809 807 809 821 818 806 803 797 788 787 789 796 801 801 803 804 803 804 805 806 807 809 812 813 815 817 819 822 824 827 829 831 834 836 838 839 840 841 842 842 843 844 845 846 847 849 850 851 853 855 856 857 858 859 860 861 861 863 864 864 866 866 867 868 869 869 869 870 870 871 871 871 872 872 872 872 872 872 872 872 871 871 870 870 871 871 871
791 790 799 808 808 813 808 803 803 804 810 808 816 835 827 809 801 793 788 788 792 799 802 802 803 803 804 805 806 807 807 809 811 813 816 817 819 821 823 826 828 831 833 835 838 839 841 842 843 843 844 845 846 847 848 849 850 852 853 854 856 857 858 859 860 861 862 863 864 865 866 866 867 868 869 869 869 870 870 871 871 872 872 872 872 872 872 872 872 871 871 871 870 871 871 871 871
795 798 802 807 817 820 807 804 807 809 813 807 815 835 829 811 801 793 789 789 794 801 802 802 804 804 806 806 807 808 808 809 811 812 815 816 819 821 823 826 828 830 833 835 837 839 841 842 843 844 844 846 846 847 848 849 851 852 853 855 856 857 858 859 860 861 862 863 864 865 866 866 867 868 868 869 869 869 870 870 871 872 872 872 872 872 872 872 871 871 871 871 871 871 871 871 871
797 808 817 814 820 824 811 806 808 812 813 804 811 830 828 813 802 794 790 790 795 801 802 802 804 806 808 808 808 810 809 808 810 812 815 816 818 820 822 825 828 830 832 834 836 838 841 842 843 844 845 846 847 848 849 850 851 852 854 855 856 857 858 859 860 861 862 863 864 864 865 866 867 868 868 868 869 869 870 871 871 872 872 872 872 871 871 871 871 871 871 872 872 871 872 871 871
801 808 823 821 821 827 820 810 806 808 811 807 812 826 827 814 802 795 791 792 796 800 803 803 805 807 808 809 809 810 810 809 810 812 814 816 818 820 822 825 827 830 831 833 836 838 840 842 843 844 845 846 847 848 849 850 852 853 854 855 856 858 858 859 860 862 862 863 864 865 866 866 867 868 868 868 869 869 870 871 872 872 872 871 871 872 871 872 872 872 872 872 872 872 872 872 872
809 807 817 818 818 825 824 817 808 804 811 814 814 820 822 813 803 798 795 794 798 802 804 804 805 807 808 809 809 811 811 811 811 811 813 815 818 820 822 825 827 829 831 833 835 837 839 841 843 844 845 847 847 848 850 851 852 853 855 855 857 858 859 860 861 862 862 863 864 865 866 867 867 868 869 869 869 870 870 871 872 872 872 872 871 872 872 872 873 873 873 873 873 873 873 873 872
809 809 812 817 816 819 822 822 815 808 813 817 819 822 820 813 806 802 798 796 801 803 803 803 805 807 809 808 810 811 811 811 811 810 812 815 818 821 822 825 827 829 831 833 835 837 839 841 843 844 846 847 848 849 850 851 853 854 855 856 857 858 859 860 861 862 862 863 864 865 866 867 868 868 869 869 869 869 870 871 872 872 872 872 872 873 873 873 873 873 873 873 873 874 873 873 873
796 798 802 811 815 817 817 818 814 810 817 821 821 824 821 817 812 806 802 799 802 805 802 804 806 807 808 809 810 810 810 810 809 809 812 814 817 821 823 825 827 829 830 832 835 837 839 840 842 844 846 847 848 849 850 851 853 854 855 856 857 858 859 860 861 862 862 863 864 865 866 867 868 868 869 869 869 869 870 871 871 872 872 873 873 873 873 874 874 873 873 873 873 873 874 874 873
784 793 798 802 809 816 813 813 811 807 818 824 821 823 823 821 816 809 805 804 805 807 806 806 806 808 808 808 809 810 809 808 807 809 812 814 817 820 823 825 826 828 830 832 834 836 838 839 841 843 845 847 848 849 850 851 852 854 855 856 857 858 859 860 861 862 863 863 864 865 866 867 868 868 869 869 869 869 870 871 872 872 873 873 873 873 874 874 874 873 873 873 873 873 873 873 873
781 792 799 801 808 813 810 811 810 805 816 826 823 826 828 823 820 814 809 812 813 811 811 809 807 807 807 808 809 809 808 806 807 809 811 814 817 820 823 825 826 828 829 832 833 835 837 839 841 843 844 846 848 849 850 851 852 854 855 856 857 859 860 861 862 863 864 864 865 866 866 867 868 869 869 869 870 870 870 871 872 873 873 873 873 873 873 874 874 874 874 873 873 873 873 872 872
781 788 794 804 808 810 813 812 809 807 816 828 827 829 831 824 823 822 818 820 818 814 814 813 808 807 807 807 808 808 808 808 808 809 811 814 816 819 822 824 826 828 829 832 833 835 837 838 840 842 844 846 848 849 850 852 853 854 855 856 858 859 860 861 862 863 864 865 865 866 867 868 868 869 870 870 871 871 871 872 872 873 873 873 874 874 874 874 874 874 874 873 873 873 873 872 872
779 786 791 803 803 806 819 819 813 810 812 823 827 831 833 827 827 827 822 822 819 814 814 812 809 807 806 805 805 806 809 810 810 809 810 813 815 818 821 824 826 828 830 832 833 835 836 838 840 841 843 845 847 849 850 852 853 854 855 857 858 859 860 861 863 864 865 865 866 867 867 868 869 869 870 871 871 872 872 872 872 872 873 873 874 874 874 874 874 874 874 874 873 873 873 873 873
774 773 780 795 795 794 807 813 812 813 815 817 823 837 840 832 834 833 823 822 821 815 814 813 809 806 804 803 803 804 806 808 809 809 809 811 814 817 819 823 825 828 830 831 832 834 835 837 839 840 843 845 846 848 850 852 853 854 855 856 858 859 860 862 863 864 865 866 866 867 868 868 869 870 870 871 871 872 872 872 872 872 873 873 873 873 874 874 874 874 874 874 873 873 873 874 874
771 762 761 776 784 788 800 807 812 825 830 818 817 842 849 835 835 834 826 827 825 819 817 814 810 806 805 806 804 803 804 805 806 807 808 810 812 815 818 821 824 827 829 831 832 834 835 837 838 840 842 844 846 847 849 851 852 853 854 855 857 858 860 861 862 863 864 865 866 867 868 868 869 870 870 871 871 872 872 872 872 873 873 873 873 873 873 874 874 874 875 874 874 874 874 874 874
778 759 749 763 776 788 800 805 811 826 828 812 808 830 845 839 833 830 827 830 827 821 819 815 810 808 807 806 804 803 804 804 805 806 806 809 811 814 817 819 823 826 828 830 832 834 835 837 838 840 842 843 845 847 848 850 851 853 854 855 856 857 859 860 862 863 864 865 866 867 867 868 869 870 870 871 871 871 872 872 873 873 873 873 874 874 874 874 874 875 875 875 875 875 875 874 874
776 750 745 764 776 787 796 796 804 813 813 814 810 814 833 839 829 822 823 829 829 824 822 817 811 808 807 805 802 801 802 803 804 806 806 807 810 812 815 818 821 824 827 829 831 833 835 837 838 840 842 843 844 846 847 849 850 852 854 855 856 857 858 860 862 863 864 865 866 867 867 868 869 870 870 871 871 872 872 872 873 873 873 874 874 874 874 874 875 875 875 875 875 875 874 874 874
764 744 750 764 769 780 787 789 800 803 811 832 825 811 831 841 824 817 821 828 830 825 821 817 811 808 805 803 801 799 800 800 801 804 804 805 808 811 814 817 820 822 825 828 830 832 834 836 838 840 841 843 844 846 847 848 850 852 853 855 856 857 858 860 861 862 864 864 865 867 867 868 869 870 870 870 871 871 872 872 873 873 873 874 874 874 874 875 875 875 875 875 875 875 874 874 874
751 740 750 757 762 773 781 788 798 801 814 834 829 814 828 838 827 822 825 826 825 820 816 813 808 806 803 800 799 798 798 799 799 801 802 804 806 809 813 815 818 821 823 826 829 831 833 835 838 839 841 842 844 845 846 848 849 851 853 854 855 857 858 859 860 861 863 863 865 866 867 867 868 869 870 870 871 871 872 872 872 873 874 874 874 874 874 875 875 875 875 875 875 875 875 875 875
743 743 751 759 763 769 782 791 794 809 823 823 817 812 817 828 826 822 820 812 808 810 813 812 807 803 801 798 797 796 797 799 798 799 800 803 806 808 811 814 817 819 821 824 827 829 832 834 836 838 840 841 843 845 846 847 849 850 852 853 854 856 857 858 859 860 861 862 863 865 866 867 868 868 869 869 870 871 871 872 872 873 874 874 875 875 875 875 875 875 875 875 875 875 875 875 875
744 751 759 771 775 771 784 795 794 816 830 814 808 807 812 825 820 809 805 796 794 801 806 808 807 803 799 796 795 793 795 797 797 799 799 801 805 807 809 812 814 817 819 822 825 828 830 833 835 837 838 840 842 844 845 847 848 849 851 852 853 855 856 857 858 859 860 861 863 864 865 866 867 868 868 869 870 870 871 871 872 873 873 874 874 875 875 875 875 875 875 875 875 875 875 875 875
749 758 768 787 798 795 802 806 804 819 822 806 803 808 816 820 805 795 796 791 790 792 794 800 802 802 799 795 794 792 792 794 796 797 799 800 803 805 807 809 811 814 817 820 823 826 828 831 833 835 837 838 840 842 844 846 847 848 850 851 852 853 855 856 857 858 860 861 862 863 864 865 866 866 867 868 869 870 870 871 872 872 873 874 874 874 874 874 875 875 875 875 875 875 875 875 875
757 763 774 793 808 817 822 813 810 822 819 800 797 807 818 814 795 787 788 785 783 783 785 791 794 797 797 793 791 791 790 791 793 795 796 797 800 802 804 807 809 812 815 818 821 824 827 829 831 833 835 837 839 841 843 845 846 847 849 850 851 852 853 855 856 857 859 860 861 862 863 863 864 865 866 867 868 869 870 870 871 872 873 873 873 874 874 874 875 875 875 875 875 875 875 874 874
758 754 764 784 794 806 817 811 810 821 819 807 804 811 816 811 796 781 775 774 775 777 781 785 789 791 792 791 790 791 790 789 790 792 793 794 796 799 802 804 807 809 812 815 819 822 824 827 829 831 834 835 837 839 841 843 845 846 848 849 850 851 852 853 855 856 857 859 860 861 862 862 863 864 865 866 867 868 869 870 871 871 872 873 873 873 874 874 874 874 874 874 875 875 874 874 874
759 748 763 780 775 780 794 794 792 803 815 816 811 809 802 795 786 772 768 773 773 777 781 783 789 789 789 792 790 789 790 788 788 789 790 791 793 796 799 802 804 807 810 813 816 819 822 825 827 830 832 834 836 838 840 841 843 845 846 848 849 850 851 852 853 855 856 857 859 860 861 862 863 864 864 865 866 867 868 869 870 870 871 872 872 873 873 873 874 874 874 874 875 875 874 874 874
761 759 772 767 752 763 784 789 781 788 815 821 810 808 801 793 790 777 772 779 778 780 783 784 788 788 790 793 789 788 789 787 787 787 787 789 790 793 796 799 802 805 808 811 813 816 819 822 825 828 830 832 834 836 838 839 841 843 845 846 847 848 850 851 852 854 855 856 858 859 860 861 861 863 863 864 865 866 867 868 869 869 870 871 871 872 872 873 873 873 874 874 874 874 874 874 874
762 771 767 753 750 759 773 794 797 796 819 825 812 813 811 808 805 788 779 785 784 783 785 786 787 789 791 792 789 788 787 786 786 785 785 787 788 791 794 796 799 803 806 808 811 814 817 820 823 825 828 830 832 834 836 838 839 841 843 844 846 847 848 850 851 852 854 855 856 857 858 859 860 861 862 863 864 865 866 867 868 868 869 870 871 871 872 872 873 873 873 874 874 874 874 874 874
750 757 750 754 777 781 776 794 805 806 822 830 821 815 810 808 803 789 785 786 783 783 784 786 788 787 789 790 789 787 786 786 786 784 784 785 786 789 791 794 797 800 804 806 809 812 814 818 820 823 826 828 830 832 834 836 838 839 841 842 844 846 847 849 850 851 852 853 854 856 857 858 859 860 861 862 863 864 865 866 867 867 868 869 870 870 871 871 872 872 873 873 873 873 873 873 873
742 748 748 753 769 777 776 781 787 797 813 823 827 824 808 796 787 781 782 779 777 781 782 782 784 783 784 785 786 786 785 785 785 784 783 782 783 786 788 792 795 797 801 803 807 810 812 816 818 821 824 826 828 830 832 834 836 837 839 841 843 844 846 847 848 849 851 851 853 854 855 856 857 858 859 860 861 862 863 864 865 866 867 868 868 869 869 870 871 871 871 872 872 872 872 872 872
755 761 765 762 760 762 769 771 769 780 796 806 822 830 809 785 775 773 774 772 771 775 776 778 778 777 779 780 780 781 782 783 782 782 782 780 781 784 786 789 792 795 799 801 805 808 810 814 816 819 822 824 826 828 830 832 834 836 838 839 841 843 844 846 847 848 849 850 851 852 853 854 855 857 858 859 860 860 861 863 864 865 866 866 867 868 868 869 869 870 870 871 871 871 871 871 871
754 761 764 764 763 764 777 784 768 764 778 784 801 823 811 782 772 770 769 769 768 768 771 774 774 774 775 775 775 776 777 779 779 779 780 779 779 781 784 787 790 793 796 799 803 806 808 811 814 816 819 822 824 826 828 830 832 834 836 837 839 841 843 844 845 847 848 849 850 851 852 853 854 855 856 857 858 859 860 861 862 863 864 865 865 866 867 868 868 869 869 870 870 870 871 871 871